Regional Weather Roundup
Issued by NWS Cleveland, OH

Home | Current Version | Previous Version | Graphics & Text | Print | Product List | Glossary On
Versions: 1 2 3 4 5 6 7 8 9 10 11 12 13 14 15 16 17 18 19 20 21 22 23 24 25 26 27 28 29 30 31 32 33 34 35 36 37 38 39 40 41 42 43 44 45 46 47 48 49 50
000
ASUS41 KCLE 242310
RWRCLE
OHIO REGIONAL WEATHER ROUNDUP
NATIONAL WEATHER SERVICE CLEVELAND, OH
600 PM EST SAT JAN 24 2015

NOTE: "FAIR" INDICATES FEW OR NO CLOUDS BELOW 12,000 FEET WITH NO
SIGNIFICANT WEATHER AND/OR OBSTRUCTIONS TO VISIBILITY.

OHZ001>008-015>018-024>027-034-035-043-044-250000-
   NORTHWEST OHIO

CITY           SKY/WX    TMP DP  RH WIND       PRES   REMARKS
DEFIANCE       CLOUDY    36  30  79 SW7       29.67R
FINDLAY        CLOUDY    34  29  82 W13       29.66R WCI  25
TOLEDO EXPRESS CLOUDY    33  29  85 SW9       29.63R FOG     WCI  25
TOLEDO EXEC    CLOUDY    34  28  79 SW10      29.64R HAZE    WCI  26
LIMA           CLOUDY    35  29  78 W12       29.68R WCI  27
$$

OHZ009>014-019>023-028>033-038-089-250000-
   NORTHEAST OHIO

CITY           SKY/WX    TMP DP  RH WIND       PRES   REMARKS
CLE-HOPKINS    LGT SNOW  31  28  89 W13       29.65R WCI  21
CLE-LAKEFRONT  LGT SNOW  32  28  85 SW14      29.62R FOG     WCI  22
CUY CO. ARPT   SNOW      32  30  93 W15       29.60R VSB 1/2 WCI  22
LORAIN-ELYRIA  CLOUDY    31  28  89 W9        29.63R FOG     WCI  23
ASHTABULA      CLOUDY    30  27  88 W10       29.58R FOG     WCI  21
AKRON-CANTON   DRIZZLE   32  28  85 W13       29.61R FOG     WCI  22
WOOSTER        FRZ RAIN  31  29  92 W14       29.63R FOG     WCI  21
MANSFIELD      CLOUDY    30  29  96 W10       29.63R FOG     WCI  21
YOUNGSTOWN     CLOUDY    30  25  81 W14       29.58R WCI  19
$$

OHZ042-051>053-060>062-070>072-077>081-250000-
  SOUTHWEST OHIO

CITY           SKY/WX    TMP DP  RH WIND       PRES   REMARKS
CINC-COVINGTON PTCLDY    37  27  67 W9        29.74R
CINC-LUNKEN    MOCLDY    36  27  69 SW9       29.76R
HAMILTON       PTCLDY    36  27  69 W5        29.75R
DAYTON         PTCLDY    33  28  81 W10       29.71R HAZE    WCI  25
WRIGHT-PAT AFB PTCLDY    33  28  80 W9        29.71R WCI  26
DAYTON GENERAL PTCLDY    35  28  75 W7        29.71R WCI  29
WILMINGTON     CLOUDY    35  27  72 W13       29.71R WCI  26
$$

OHZ036-037-039>041-045>050-054>059-063>069-073>076-082>088-250000-
  CENTRAL AND SOUTHEAST OHIO

CITY           SKY/WX    TMP DP  RH WIND       PRES   REMARKS
COLUMBUS       DRIZZLE   34  30  85 W9        29.68R WCI  27
OSU AIRPORT    CLOUDY    34  28  79 W9        29.68R WCI  27
BOLTON FIELD   CLOUDY    34  30  86 SW9       29.68R WCI  26
RICKENBACK AFB CLOUDY    34  30  83 W10       29.69R WCI  26
NEWARK         CLOUDY    34  31  88 W8        29.67R FOG     WCI  27
MARION         CLOUDY    32  29  88 W10       29.67R FOG     WCI  24
LANCASTER      CLOUDY    34  32  92 W8        29.70R FOG     WCI  27
ZANESVILLE     CLOUDY    31  28  89 SW6       29.67R FOG     WCI  25
NEW PHILLY     CLOUDY    32  29  88 W5        29.66R FOG     WCI  27
$$



USA.gov is the U.S. government's official web portal to all federal, state and local government web resources and services.